Cancun International Airp, Mexico

12:10 PM EST on September 27, 2016 (GMT -0500)
Cancun International

Weather History for MMUN - October, 2011

Change the Weather History Date:

Friday, October 28, 2011

  Actual Average Record
Temperature  
Mean Temperature 76 °F -  
Max Temperature 82 °F 85 °F 93 °F (2004)
Min Temperature 69 °F 71 °F 62 °F (2000)
Cooling Degree Days 10    
Growing Degree Days 26 (Base 50)    
Moisture  
Dew Point 72 °F    
Average Humidity 93    
Maximum Humidity 100    
Minimum Humidity 66    
Precipitation  
Precipitation 0.00 in - - ()
Sea Level Pressure  
Sea Level Pressure 29.81 in    
Wind  
Wind Speed 10 mph ()    
Max Wind Speed 26 mph    
Max Gust Speed 39 mph    
Visibility 5.3 miles    
Events Rain , Thunderstorm    
Averages and records for this station are not official NWS values.
T = Trace of Precipitation, MM = Missing Value Source: Averaged Metar Reports

Daily Weather History Graph

Daily Weather History Graph

Search for Another Location

Airport or City:

Trip Planner

Search our weather history database for the weather conditions in past years. The results will help you decide how hot, cold, wet, or windy it might be!

Date:

Astronomy

Oct. 28, 2011 Rise Set
Actual Time 6:48 AM CDT 6:14 PM CDT
Civil Twilight 6:25 AM CDT 6:36 PM CDT
Nautical Twilight 5:59 AM CDT 7:03 PM CDT
Astronomical Twilight 5:33 AM CDT 7:29 PM CDT
Moon 8:42 AM CDT (10/28) 7:58 PM CDT (10/28)
Length of Visible Light 12h 11m
Length of Day
11h 26m
Waxing Crescent, 5% of the Moon is Illuminated
Oct 28
Waxing Crescent
Nov 2
First Quarter
Nov 10
Full
Nov 18
Last Quarter
Nov 25
New

Hourly Weather History & Observations

Time (CDT) Temp. Heat Index Dew Point Humidity Pressure Visibility Wind Dir Wind Speed Gust Speed Precip Events Conditions
12:45 AM 71.6 °F - 71.6 °F 100% 29.75 in 0.5 mi ESE 26.5 mph 39.1 mph N/A Rain , Thunderstorm Thunderstorms and Rain
1:44 AM 71.6 °F - 71.6 °F 100% 29.77 in 0.5 mi East 23.0 mph - N/A Rain , Thunderstorm Thunderstorms and Rain
2:43 AM 71.6 °F - 71.6 °F 100% 29.76 in 3.0 mi East 13.8 mph - N/A Rain , Thunderstorm Thunderstorms and Rain
3:42 AM 71.6 °F - 71.6 °F 100% 29.74 in 4.0 mi NNE 17.3 mph - N/A Rain Rain
4:46 AM 71.6 °F - 71.6 °F 100% 29.74 in 5.0 mi NE 11.5 mph - N/A Rain Rain
5:45 AM 71.6 °F - 71.6 °F 100% 29.74 in 3.0 mi North - - N/A Rain Light Rain
6:48 AM 71.6 °F - 71.6 °F 100% 29.75 in 2.0 mi North - - N/A Rain Light Rain
7:50 AM 69.8 °F - 69.8 °F 100% 29.81 in 5.0 mi Calm Calm - N/A   Mostly Cloudy
8:44 AM 73.4 °F - 73.4 °F 100% 29.83 in 5.0 mi West 5.8 mph - N/A   Mostly Cloudy
9:47 AM 73.4 °F - 71.6 °F 94% 29.86 in 6.0 mi WSW 3.5 mph - N/A   Overcast
11:05 AM 75.2 °F - 73.4 °F 94% 29.85 in 6.0 mi WNW 4.6 mph - N/A   Mostly Cloudy
11:43 AM 75.2 °F - 73.4 °F 94% 29.84 in 6.0 mi WNW 9.2 mph - N/A   Mostly Cloudy
12:43 PM 78.8 °F - 73.4 °F 83% 29.84 in 6.0 mi WNW 8.1 mph - N/A   Mostly Cloudy
1:44 PM 80.6 °F 85.4 °F 73.4 °F 79% 29.81 in 7.0 mi WNW 8.1 mph - N/A   Mostly Cloudy
2:44 PM 82.4 °F 87.2 °F 71.6 °F 70% 29.79 in 7.0 mi WNW 9.2 mph - N/A   Mostly Cloudy
3:43 PM 82.4 °F 86.3 °F 69.8 °F 66% 29.77 in 7.0 mi NW 11.5 mph - N/A   Scattered Clouds
4:48 PM 80.6 °F 84.6 °F 71.6 °F 74% 29.80 in 7.0 mi NW 9.2 mph - N/A   Scattered Clouds
5:46 PM 78.8 °F - 71.6 °F 78% 29.82 in 7.0 mi NW 8.1 mph - N/A   Scattered Clouds
6:40 PM 75.2 °F - 71.6 °F 89% 29.82 in 7.0 mi NW 8.1 mph - N/A   Partly Cloudy
7:42 PM 73.4 °F - 73.4 °F 100% 29.86 in 7.0 mi WNW 4.6 mph - N/A   Partly Cloudy
8:45 PM 73.4 °F - 73.4 °F 100% 29.87 in 7.0 mi WNW 5.8 mph - N/A   Partly Cloudy
9:44 PM 71.6 °F - 71.6 °F 100% 29.90 in 7.0 mi Calm Calm - N/A   Scattered Clouds
10:48 PM 71.6 °F - 71.6 °F 100% 29.89 in 7.0 mi Calm Calm - N/A   Mostly Cloudy
11:47 PM 71.6 °F - 71.6 °F 100% 29.89 in 6.0 mi Calm Calm - N/A   Mostly Cloudy